EW8536 Weather Reports


Display with metric or nautical units.
time (UTC)temp
F
wind
direction
speed
MPH
gust
MPH
rain 1hr
in
rain 24hr
in
rain mn
in
humidity
%
barometer
mb
20190323081516 32 225 2.0 11.0 0.00 0.79 0.04 93 990.3
20190323080517 32 225 1.0 3.0 0.00 0.82 0.04 93 990.3
20190323075517 32 247 3.0 14.0 0.00 0.85 0.04 94 990.2
20190323074517 33 247 1.0 7.0 0.00 0.86 0.04 94 990.1
20190323073517 33 292 2.0 10.0 0.00 0.87 0.04 94 990.0
20190323072517 33 225 2.0 8.0 0.00 0.87 0.04 94 989.9
20190323071517 33 247 2.0 6.0 0.00 0.87 0.04 93 989.8
20190323070517 33 225 3.0 12.0 0.00 0.88 0.04 93 989.7
20190323065517 34 292 2.0 7.0 0.00 0.88 0.04 94 989.8
20190323064516 34 247 1.0 5.0 0.01 0.88 0.04 94 989.7
20190323063516 34 202 1.0 7.0 0.02 0.88 0.04 94 989.6
20190323062517 34 225 2.0 6.0 0.03 0.88 0.04 93 989.5
20190323061517 34 292 2.0 16.0 0.03 0.88 0.04 93 989.5
20190323060516 35 0.0 4.0 0.04 0.88 0.04 92 989.4
20190323055516 35 247 1.0 6.0 0.04 0.90 0.04 92 989.3
20190323054517 36 225 1.0 5.0 0.03 0.90 0.03 91 989.4
20190323053517 36 225 2.0 7.0 0.02 0.89 0.02 90 989.2
20190323052517 37 270 1.0 6.0 0.01 0.90 0.01 89 989.1
20190323051517 37 225 2.0 7.0 0.01 0.92 0.01 87 988.8
20190323050517 37 247 2.0 7.0 0.00 0.93 0.00 87 988.7
20190323045516 38 225 1.0 5.0 0.00 0.95 0.00 88 988.6
20190323044516 38 247 1.0 6.0 0.00 0.97 0.00 88 988.5
20190323043516 38 292 1.0 5.0 0.00 0.97 0.00 88 988.5
20190323042516 38 225 2.0 13.0 0.00 0.97 0.00 89 988.5
20190323041516 38 225 1.0 7.0 0.00 0.97 0.00 89 988.4
20190323040517 38 292 1.0 5.0 0.01 0.97 0.00 89 988.4
20190323035517 38 225 3.0 11.0 0.01 0.97 0.97 89 988.3
20190323034517 38 225 2.0 7.0 0.01 0.97 0.97 90 988.3
20190323033517 38 247 2.0 9.0 0.01 0.97 0.97 90 988.3
20190323032517 38 202 1.0 6.0 0.01 0.97 0.97 89 988.3
20190323031518 38 225 1.0 7.0 0.01 0.97 0.97 89 988.4
20190323030517 38 225 1.0 4.0 0.00 0.96 0.96 87 988.3
20190323025517 39 225 1.0 5.0 0.00 0.96 0.96 85 988.3
20190323024518 39 225 1.0 5.0 0.00 0.96 0.96 84 988.3
20190323023517 40 225 1.0 7.0 0.00 0.96 0.96 81 988.3
20190323022517 40 0.0 3.0 0.00 0.96 0.96 79 988.3
20190323021516 40 247 2.0 10.0 0.00 0.96 0.96 77 988.2
20190323020518 40 225 1.0 7.0 0.00 0.96 0.96 75 988.3
20190323015517 40 292 1.0 5.0 0.00 0.96 0.96 75 988.3
20190323014517 40 292 1.0 6.0 0.00 0.96 0.96 75 988.1
20190323013518 40 292 2.0 6.0 0.00 0.96 0.96 75 988.0
20190323012517 40 225 3.0 9.0 0.00 0.96 0.96 75 987.8
20190323011517 40 247 2.0 7.0 0.00 0.96 0.96 76 987.8
20190323010515 40 292 1.0 18.0 0.00 0.96 0.96 77 987.7
20190323005517 40 225 3.0 14.0 0.00 0.96 0.96 77 987.7
20190323004517 41 247 1.0 3.0 0.00 0.96 0.96 79 987.5
20190323003517 41 225 2.0 6.0 0.00 0.96 0.96 80 987.3
20190323002517 41 292 2.0 10.0 0.00 0.96 0.96 81 987.1
20190323001517 41 292 2.0 6.0 0.00 0.96 0.96 82 986.9
20190323000519 41 225 3.0 13.0 0.00 0.96 0.96 83 986.9
20190322235515 41 247 2.0 6.0 0.00 0.96 0.96 83 986.7
20190322234518 41 225 2.0 8.0 0.00 0.96 0.96 83 986.4
20190322233517 41 225 2.0 6.0 0.00 0.96 0.96 84 986.2
20190322232517 41 0.0 5.0 0.00 0.96 0.96 84 986.2
20190322231517 41 292 1.0 5.0 0.01 0.96 0.96 84 986.1
20190322230517 40 270 2.0 9.0 0.02 0.96 0.96 86 986.1
20190322225517 40 292 2.0 8.0 0.02 0.96 0.96 88 985.9
20190322224515 40 247 1.0 4.0 0.02 0.96 0.96 89 985.8
20190322223517 39 225 1.0 5.0 0.03 0.96 0.96 89 985.6
20190322222517 39 225 2.0 6.0 0.03 0.96 0.96 90 985.5
20190322221517 40 247 3.0 8.0 0.03 0.95 0.95 90 985.4
20190322220517 40 202 2.0 7.0 0.03 0.94 0.94 89 985.2
20190322215517 40 292 3.0 9.0 0.03 0.94 0.94 90 985.1
20190322214517 40 225 3.0 14.0 0.03 0.94 0.94 90 984.9
20190322213517 40 247 3.0 17.0 0.02 0.93 0.93 90 984.7
20190322212517 40 247 3.0 10.0 0.02 0.93 0.93 90 984.6
20190322211517 40 292 3.0 8.0 0.01 0.92 0.92 89 984.4
20190322210518 41 247 2.0 11.0 0.00 0.91 0.91 88 984.3
20190322205517 41 225 3.0 9.0 0.00 0.91 0.91 86 984.2
20190322204517 42 225 2.0 5.0 0.00 0.91 0.91 86 984.2
20190322203517 42 292 4.0 15.0 0.00 0.91 0.91 85 984.1
20190322202517 42 292 2.0 5.0 0.00 0.91 0.91 85 984.1
20190322201517 42 225 2.0 10.0 0.00 0.91 0.91 85 983.9
20190322200517 42 225 3.0 9.0 0.00 0.91 0.91 86 983.8
20190322195517 42 247 2.0 13.0 0.00 0.91 0.91 87 983.8
20190322194517 41 292 3.0 9.0 0.00 0.91 0.91 88 983.7
20190322193517 41 292 3.0 10.0 0.01 0.91 0.91 89 983.6
20190322192517 41 292 3.0 10.0 0.01 0.91 0.91 91 983.8
20190322191517 41 225 2.0 7.0 0.01 0.91 0.91 91 983.9
20190322190517 41 292 1.0 5.0 0.01 0.91 0.91 93 983.9
20190322185518 41 292 1.0 4.0 0.01 0.91 0.91 93 984.0
20190322184517 41 270 1.0 8.0 0.02 0.91 0.91 94 984.0
20190322183517 41 292 2.0 9.0 0.01 0.90 0.90 94 984.2
20190322182517 40 292 2.0 7.0 0.01 0.90 0.90 94 984.4
20190322181517 40 292 2.0 6.0 0.02 0.90 0.90 95 984.5
20190322180517 40 292 3.0 10.0 0.03 0.90 0.90 95 984.6
20190322175517 40 292 3.0 7.0 0.04 0.90 0.90 95 984.8
20190322174517 39 292 2.0 6.0 0.04 0.89 0.89 95 984.8
20190322173517 39 292 2.0 6.0 0.06 0.89 0.89 95 985.1
20190322172517 39 292 1.0 3.0 0.07 0.89 0.89 95 985.3
20190322171517 39 225 1.0 5.0 0.06 0.88 0.88 94 985.5
20190322170517 39 225 1.0 4.0 0.05 0.87 0.87 95 985.6
20190322165517 39 247 1.0 3.0 0.04 0.86 0.86 95 985.8
20190322164517 39 292 1.0 5.0 0.04 0.85 0.85 95 986.0
20190322163517 39 0.0 2.0 0.02 0.83 0.83 95 986.1
20190322162517 39 0.0 3.0 0.01 0.82 0.82 95 986.1
20190322161517 39 247 1.0 4.0 0.01 0.82 0.82 95 986.1
20190322160517 39 292 1.0 3.0 0.02 0.82 0.82 95 986.1
20190322155517 39 270 1.0 4.0 0.02 0.82 0.82 95 986.1
20190322154517 39 292 1.0 3.0 0.01 0.81 0.81 95 986.1
20190322153517 39 292 1.0 5.0 0.02 0.81 0.81 95 986.1
20190322152517 39 292 1.0 5.0 0.02 0.81 0.81 95 986.3
20190322151518 39 292 1.0 4.0 0.03 0.81 0.81 95 986.6
20190322150517 39 0.0 3.0 0.02 0.80 0.80 95 986.9
20190322145517 39 0.0 3.0 0.02 0.80 0.80 96 987.2
20190322144517 38 292 1.0 4.0 0.02 0.80 0.80 95 987.4
20190322143517 38 0.0 2.0 0.02 0.79 0.79 95 987.5
20190322142517 38 45 1.0 8.0 0.02 0.79 0.79 95 987.8
20190322141517 38 45 1.0 4.0 0.02 0.78 0.78 95 988.0
20190322140517 38 45 2.0 5.0 0.03 0.78 0.78 95 988.3
20190322135517 38 45 1.0 3.0 0.05 0.78 0.78 95 988.4
20190322134517 38 45 1.0 10.0 0.06 0.78 0.78 95 988.6
20190322133517 38 45 3.0 7.0 0.05 0.77 0.77 94 988.7
20190322132517 38 22 2.0 7.0 0.06 0.77 0.77 95 989.2
20190322131517 39 45 2.0 8.0 0.06 0.76 0.76 95 989.7
20190322130517 39 45 2.0 4.0 0.06 0.75 0.75 95 990.3
20190322125517 39 45 1.0 6.0 0.04 0.73 0.73 94 990.6
20190322124517 39 45 3.0 6.0 0.04 0.72 0.72 94 991.0
20190322123517 39 22 2.0 6.0 0.04 0.72 0.72 95 991.2
20190322122517 39 45 2.0 5.0 0.04 0.71 0.71 94 991.5
20190322121517 39 45 2.0 7.0 0.03 0.70 0.70 94 991.9
20190322120517 39 45 3.0 9.0 0.03 0.69 0.69 94 992.2
20190322115516 39 45 3.0 7.0 0.03 0.69 0.69 94 992.4
20190322114517 39 45 5.0 13.0 0.03 0.68 0.68 94 992.6
20190322113517 39 45 4.0 10.0 0.04 0.68 0.68 95 992.9
20190322112517 39 45 4.0 8.0 0.03 0.67 0.67 95 993.3
20190322111517 39 45 3.0 8.0 0.05 0.67 0.67 95 993.5
20190322110517 39 45 4.0 13.0 0.04 0.66 0.66 95 993.7
20190322105517 39 45 3.0 10.0 0.04 0.66 0.66 95 993.8
20190322104517 39 45 4.0 12.0 0.03 0.65 0.65 95 994.3
20190322103517 39 45 4.0 10.0 0.03 0.64 0.64 95 994.6
20190322102518 39 45 4.0 10.0 0.05 0.64 0.64 95 994.9
20190322101516 39 45 4.0 10.0 0.04 0.62 0.62 96 995.5
20190322100517 39 45 5.0 11.0 0.06 0.62 0.62 96 995.3
20190322095517 39 45 3.0 8.0 0.15 0.62 0.62 96 995.7
20190322094516 39 45 3.0 8.0 0.25 0.62 0.62 96 996.2
20190322093517 39 45 4.0 12.0 0.32 0.61 0.61 96 996.9
20190322092516 39 45 4.0 9.0 0.34 0.59 0.59 96 996.7
20190322091517 39 45 5.0 11.0 0.36 0.58 0.58 96 997.1
20190322090516 39 45 3.0 8.0 0.36 0.56 0.56 96 998.2
20190322085516 39 45 3.0 9.0 0.31 0.47 0.47 96 998.9
20190322084517 39 45 3.0 8.0 0.22 0.37 0.37 96 999.7
20190322083516 39 45 2.0 7.0 0.15 0.29 0.29 96 1000.2
20190322082516 39 67 4.0 9.0 0.11 0.25 0.25 96 1000.4